TimeEDT,TemperatureF,Dew PointF,Humidity,Sea Level PressureIn,VisibilityMPH,Wind Direction,Wind SpeedMPH,Gust SpeedMPH,PrecipitationIn,Events,Conditions,WindDirDegrees,DateUTC
12:14 AM,29.7,20.7,69,30.22,10.0,Calm,Calm,-,N/A,,Clear,0,2013-03-30 04:14:00
12:34 AM,29.1,20.3,70,30.21,10.0,Calm,Calm,-,N/A,,Clear,0,2013-03-30 04:34:00
12:54 AM,28.4,23.0,80,30.21,10.0,Calm,Calm,-,N/A,,Clear,0,2013-03-30 04:54:00
1:14 AM,29.1,21.4,73,30.21,10.0,Calm,Calm,-,N/A,,Clear,0,2013-03-30 05:14:00
1:34 AM,28.0,21.9,78,30.21,10.0,Calm,Calm,-,N/A,,Clear,0,2013-03-30 05:34:00
2:14 AM,27.5,22.5,81,30.21,10.0,Calm,Calm,-,N/A,,Clear,0,2013-03-30 06:14:00
2:34 AM,26.4,20.1,77,30.21,10.0,Calm,Calm,-,N/A,,Clear,0,2013-03-30 06:34:00
2:54 AM,25.3,19.6,79,30.21,10.0,Calm,Calm,-,N/A,,Clear,0,2013-03-30 06:54:00
3:14 AM,25.7,18.9,75,30.21,10.0,Calm,Calm,-,N/A,,Clear,0,2013-03-30 07:14:00
3:35 AM,25.3,19.4,78,30.21,10.0,Calm,Calm,-,N/A,,Clear,0,2013-03-30 07:35:00
3:54 AM,25.9,22.1,86,30.20,10.0,Calm,Calm,-,N/A,,Clear,0,2013-03-30 07:54:00
4:14 AM,25.7,23.0,89,30.20,10.0,Calm,Calm,-,N/A,,Clear,0,2013-03-30 08:14:00
4:35 AM,25.3,22.1,87,30.20,10.0,Calm,Calm,-,N/A,,Clear,0,2013-03-30 08:35:00
4:54 AM,23.7,18.7,81,30.20,10.0,Calm,Calm,-,N/A,,Clear,0,2013-03-30 08:54:00
5:14 AM,23.5,18.5,81,30.20,10.0,Calm,Calm,-,N/A,,Clear,0,2013-03-30 09:14:00
5:34 AM,24.8,20.8,85,30.19,10.0,Calm,Calm,-,N/A,,Clear,0,2013-03-30 09:34:00
5:54 AM,24.4,21.7,89,30.19,10.0,Calm,Calm,-,N/A,,Clear,0,2013-03-30 09:54:00
6:14 AM,24.3,21.7,90,30.19,10.0,Calm,Calm,-,N/A,,Clear,0,2013-03-30 10:14:00
6:34 AM,23.4,20.3,88,30.20,10.0,Calm,Calm,-,N/A,,Clear,0,2013-03-30 10:34:00
6:54 AM,23.0,18.7,84,30.21,10.0,Calm,Calm,-,N/A,,Clear,0,2013-03-30 10:54:00
7:14 AM,23.5,19.9,86,30.20,10.0,Calm,Calm,-,N/A,,Clear,0,2013-03-30 11:14:00
7:34 AM,23.0,21.0,92,30.20,10.0,Calm,Calm,-,N/A,,Clear,0,2013-03-30 11:34:00
7:54 AM,23.9,21.7,91,30.21,7.0,Calm,Calm,-,N/A,,Clear,0,2013-03-30 11:54:00
8:14 AM,25.7,23.2,90,30.21,10.0,Calm,Calm,-,N/A,,Clear,0,2013-03-30 12:14:00
8:34 AM,28.4,25.0,87,30.21,10.0,Calm,Calm,-,N/A,,Clear,0,2013-03-30 12:34:00
8:54 AM,29.7,25.5,85,30.19,10.0,Calm,Calm,-,N/A,,Clear,0,2013-03-30 12:54:00
9:14 AM,31.8,24.6,75,30.18,10.0,Calm,Calm,-,N/A,,Clear,0,2013-03-30 13:14:00
9:34 AM,34.5,25.3,69,30.18,10.0,Calm,Calm,-,N/A,,Clear,0,2013-03-30 13:34:00
9:54 AM,37.2,25.7,63,30.17,10.0,SSE,3.5,-,N/A,,Clear,150,2013-03-30 13:54:00
10:15 AM,39.7,21.9,49,30.18,10.0,Calm,Calm,-,N/A,,Clear,0,2013-03-30 14:15:00
10:34 AM,41.4,21.0,44,30.17,10.0,Calm,Calm,-,N/A,,Clear,0,2013-03-30 14:34:00
10:54 AM,44.1,18.7,36,30.16,10.0,WSW,4.6,-,N/A,,Clear,250,2013-03-30 14:54:00
11:14 AM,45.0,18.0,34,30.16,10.0,SW,5.8,-,N/A,,Clear,230,2013-03-30 15:14:00
11:34 AM,45.7,17.8,33,30.16,10.0,SW,8.1,-,N/A,,Clear,230,2013-03-30 15:34:00
11:54 AM,47.1,19.0,33,30.15,10.0,SW,8.1,17.3,N/A,,Clear,230,2013-03-30 15:54:00
12:14 PM,47.8,18.5,31,30.14,10.0,SSW,9.2,-,N/A,,Clear,210,2013-03-30 16:14:00
12:34 PM,49.5,20.1,31,30.13,10.0,WSW,10.4,-,N/A,,Clear,240,2013-03-30 16:34:00
12:54 PM,50.0,20.8,32,30.12,10.0,SW,9.2,20.7,N/A,,Clear,230,2013-03-30 16:54:00
1:14 PM,51.6,21.7,31,30.12,10.0,WSW,10.4,17.3,N/A,,Clear,250,2013-03-30 17:14:00
1:34 PM,51.6,21.7,31,30.11,10.0,SSW,6.9,17.3,N/A,,Clear,200,2013-03-30 17:34:00
1:54 PM,53.1,21.7,29,30.10,10.0,SW,12.7,18.4,N/A,,Clear,220,2013-03-30 17:54:00
2:14 PM,53.6,21.4,28,30.09,10.0,WSW,10.4,16.1,N/A,,Clear,250,2013-03-30 18:14:00
2:34 PM,53.8,21.0,28,30.08,10.0,WSW,8.1,16.1,N/A,,Clear,240,2013-03-30 18:34:00
2:54 PM,54.0,21.2,28,30.07,10.0,WSW,10.4,18.4,N/A,,Clear,250,2013-03-30 18:54:00
3:14 PM,53.1,21.6,29,30.06,10.0,WSW,10.4,19.6,N/A,,Clear,240,2013-03-30 19:14:00
3:34 PM,54.3,21.7,28,30.04,10.0,SSW,6.9,16.1,N/A,,Clear,210,2013-03-30 19:34:00
3:55 PM,54.0,20.8,27,30.04,10.0,SSW,9.2,-,N/A,,Clear,210,2013-03-30 19:55:00
4:14 PM,54.0,21.9,29,30.02,10.0,SW,9.2,-,N/A,,Clear,230,2013-03-30 20:14:00
4:34 PM,53.8,21.9,29,30.01,10.0,WSW,9.2,-,N/A,,Clear,240,2013-03-30 20:34:00
4:54 PM,53.4,23.5,31,30.01,10.0,SW,6.9,-,N/A,,Clear,230,2013-03-30 20:54:00
5:14 PM,53.2,24.4,33,30.00,10.0,SW,9.2,-,N/A,,Clear,230,2013-03-30 21:14:00
5:35 PM,53.4,25.5,34,29.99,10.0,SSW,11.5,-,N/A,,Clear,210,2013-03-30 21:35:00
5:54 PM,52.9,26.2,36,29.99,10.0,SW,10.4,-,N/A,,Clear,230,2013-03-30 21:54:00
6:14 PM,52.7,26.8,37,29.99,10.0,SW,5.8,-,N/A,,Clear,220,2013-03-30 22:14:00
6:35 PM,52.3,27.7,39,29.99,10.0,SSW,9.2,-,N/A,,Clear,210,2013-03-30 22:35:00
6:54 PM,52.2,27.1,38,29.98,10.0,SSW,8.1,-,N/A,,Clear,200,2013-03-30 22:54:00
7:14 PM,51.4,27.5,40,29.97,10.0,SSW,8.1,-,N/A,,Clear,200,2013-03-30 23:14:00
7:34 PM,50.5,28.0,42,29.97,10.0,SSW,6.9,-,N/A,,Clear,200,2013-03-30 23:34:00
7:54 PM,48.2,28.9,47,29.97,10.0,SSW,5.8,-,N/A,,Clear,200,2013-03-30 23:54:00
8:15 PM,48.4,28.4,46,29.97,10.0,South,3.5,-,N/A,,Clear,190,2013-03-31 00:15:00
8:34 PM,47.5,29.7,50,29.96,10.0,South,4.6,-,N/A,,Clear,180,2013-03-31 00:34:00
8:54 PM,46.4,29.5,52,29.95,10.0,South,4.6,-,N/A,,Clear,180,2013-03-31 00:54:00
9:14 PM,45.3,29.7,54,29.95,10.0,SSE,4.6,-,N/A,,Clear,160,2013-03-31 01:14:00
9:34 PM,45.0,29.5,55,29.94,10.0,SSE,4.6,-,N/A,,Clear,160,2013-03-31 01:34:00
9:54 PM,43.9,29.7,57,29.93,10.0,SSE,5.8,-,N/A,,Clear,150,2013-03-31 01:54:00
10:14 PM,44.2,29.7,57,29.93,10.0,SSE,5.8,-,N/A,,Scattered Clouds,160,2013-03-31 02:14:00
10:34 PM,44.1,29.7,57,29.93,10.0,SSE,5.8,-,N/A,,Scattered Clouds,150,2013-03-31 02:34:00
10:54 PM,43.7,29.7,58,29.93,10.0,SSE,4.6,-,N/A,,Clear,160,2013-03-31 02:54:00
11:14 PM,42.1,30.0,62,29.92,10.0,SSE,5.8,-,N/A,,Mostly Cloudy,160,2013-03-31 03:14:00
11:34 PM,43.0,30.2,61,29.92,10.0,SSE,5.8,-,N/A,,Overcast,160,2013-03-31 03:34:00
11:54 PM,41.5,30.6,65,29.91,10.0,SSE,3.5,-,N/A,,Scattered Clouds,160,2013-03-31 03:54:00